TimeCST,TemperatureF,Dew PointF,Humidity,Sea Level PressureIn,VisibilityMPH,Wind Direction,Wind SpeedMPH,Gust SpeedMPH,PrecipitationIn,Events,Conditions,WindDirDegrees,DateUTC
12:53 AM,42.1,30.9,65,30.09,10.0,ESE,3.5,-,N/A,,Clear,110,2013-02-07 06:53:00
1:53 AM,42.1,30.9,65,30.08,10.0,East,4.6,-,N/A,,Clear,90,2013-02-07 07:53:00
2:53 AM,39.9,30.9,70,30.06,10.0,East,3.5,-,N/A,,Clear,100,2013-02-07 08:53:00
3:53 AM,37.0,30.9,79,30.04,10.0,East,5.8,-,N/A,,Clear,90,2013-02-07 09:53:00
4:53 AM,37.9,30.0,73,30.03,10.0,SE,3.5,-,N/A,,Clear,130,2013-02-07 10:53:00
5:53 AM,37.9,30.0,73,30.03,10.0,East,4.6,-,N/A,,Clear,90,2013-02-07 11:53:00
6:53 AM,34.0,28.9,82,30.01,10.0,East,3.5,-,N/A,,Clear,90,2013-02-07 12:53:00
7:53 AM,41.0,32.0,70,30.01,10.0,ESE,6.9,-,N/A,,Clear,120,2013-02-07 13:53:00
8:53 AM,51.1,34.0,52,30.01,10.0,SSE,6.9,-,N/A,,Clear,150,2013-02-07 14:53:00
9:53 AM,57.0,39.9,53,30.00,10.0,SSW,8.1,-,N/A,,Clear,200,2013-02-07 15:53:00
10:53 AM,60.1,44.1,55,29.97,10.0,South,8.1,-,N/A,,Clear,180,2013-02-07 16:53:00
11:33 AM,60.8,46.4,59,29.95,10.0,SSW,8.1,-,N/A,,Mostly Cloudy,200,2013-02-07 17:33:00
11:53 AM,62.1,46.0,56,29.95,10.0,SSW,9.2,-,N/A,,Overcast,200,2013-02-07 17:53:00
12:07 PM,64.4,46.4,52,29.94,10.0,SW,10.4,-,N/A,,Mostly Cloudy,220,2013-02-07 18:07:00
12:53 PM,64.9,48.9,56,29.92,10.0,WSW,11.5,16.1,N/A,,Clear,240,2013-02-07 18:53:00
1:53 PM,62.1,52.0,70,29.91,10.0,West,10.4,19.6,N/A,,Scattered Clouds,260,2013-02-07 19:53:00
2:53 PM,63.0,51.1,65,29.88,10.0,WSW,9.2,-,N/A,,Partly Cloudy,240,2013-02-07 20:53:00
3:53 PM,62.1,50.0,65,29.87,10.0,SW,5.8,-,N/A,,Clear,230,2013-02-07 21:53:00
4:53 PM,60.1,50.0,69,29.87,10.0,SW,3.5,-,N/A,,Partly Cloudy,230,2013-02-07 22:53:00
5:53 PM,57.0,48.9,74,29.88,10.0,WSW,3.5,-,N/A,,Overcast,240,2013-02-07 23:53:00
6:53 PM,57.9,50.0,75,29.88,10.0,SW,4.6,-,N/A,,Overcast,230,2013-02-08 00:53:00
7:53 PM,57.9,50.0,75,29.86,10.0,SW,4.6,-,N/A,,Overcast,220,2013-02-08 01:53:00
8:53 PM,55.9,53.1,90,29.87,6.0,West,4.6,-,0.01,Rain,Light Rain,280,2013-02-08 02:53:00
9:00 PM,55.4,53.6,94,29.87,2.5,West,5.8,-,0.01,Rain,Rain,280,2013-02-08 03:00:00
9:08 PM,55.4,53.6,94,29.87,1.2,West,8.1,-,0.13,Rain,Heavy Rain,270,2013-02-08 03:08:00
9:22 PM,55.4,53.6,94,29.88,2.0,West,10.4,-,0.24,Rain,Rain,270,2013-02-08 03:22:00
9:33 PM,55.4,53.6,94,29.88,4.0,West,8.1,-,0.26,Rain,Light Rain,280,2013-02-08 03:33:00
9:40 PM,55.4,53.6,94,29.89,4.0,WNW,8.1,-,0.27,Rain,Light Rain,290,2013-02-08 03:40:00
9:53 PM,55.0,54.0,96,29.89,2.0,NW,11.5,-,0.33,Rain,Heavy Rain,310,2013-02-08 03:53:00
10:07 PM,55.4,53.6,94,29.89,3.0,NW,8.1,-,0.05,Rain,Rain,310,2013-02-08 04:07:00
10:12 PM,53.6,53.6,100,29.89,2.5,NW,6.9,-,0.06,Rain,Rain,310,2013-02-08 04:12:00
10:19 PM,53.6,53.6,100,29.89,3.0,NW,8.1,-,0.07,Rain,Light Rain,320,2013-02-08 04:19:00
10:40 PM,51.8,48.2,88,29.90,6.0,North,11.5,-,0.08,Rain,Light Rain,350,2013-02-08 04:40:00
10:53 PM,51.1,48.9,92,29.91,6.0,NNW,11.5,-,0.09,Rain,Rain,340,2013-02-08 04:53:00
11:16 PM,50.0,48.2,94,29.92,6.0,NNW,5.8,-,0.03,Rain,Light Rain,340,2013-02-08 05:16:00
11:40 PM,50.0,46.4,87,29.93,10.0,NNW,17.3,21.9,0.03,Rain,Light Rain,340,2013-02-08 05:40:00
11:53 PM,50.0,46.0,86,29.94,10.0,North,12.7,20.7,0.03,Rain,Light Rain,350,2013-02-08 05:53:00